Location: Newark
(44.6028°N, 124.0883°W)
Time: 05:10:58
(UTC+00:00)

ISS - Visible Passes

Search period start: 20 September 2019 00:00
Search period end: 30 September 2019 00:00
Orbit: 411 x 421 km, 51.6° (Epoch: 20 September)

Date Brightness Start Highest point End Pass type
(mag) Time Alt. Az. Time Alt. Az. Time Alt. Az.
20 Sep -3.6 03:53:50 10° SW 03:56:58 51° SSE 03:56:58 51° SSE visible
21 Sep -2.9 03:05:43 10° SSW 03:08:41 31° SE 03:10:59 14° E visible
21 Sep -1.7 04:42:08 10° W 04:43:55 27° W 04:43:55 27° W visible
22 Sep -3.5 03:53:29 10° WSW 03:56:47 66° NNW 03:57:44 41° NE visible
23 Sep -3.9 03:04:58 10° SW 03:08:17 80° SSE 03:11:24 11° ENE visible
23 Sep -1.5 04:42:19 10° WNW 04:44:18 24° NW 04:44:18 24° NW visible
24 Sep -2.4 03:53:32 10° W 03:56:38 35° NNW 03:57:50 26° NNE visible
25 Sep -2.9 03:04:47 10° W 03:08:01 47° NNW 03:11:16 10° NE visible
25 Sep -1.2 04:42:31 10° WNW 04:44:10 20° NW 04:44:10 20° NW visible
26 Sep -2.0 03:53:43 10° WNW 03:56:34 25° N 03:57:31 22° NNE visible
27 Sep -2.2 03:04:53 10° WNW 03:07:52 29° NNW 03:10:49 10° NE visible
27 Sep -1.0 04:42:28 10° NW 04:43:43 18° NW 04:43:43 18° NW visible
28 Sep -2.0 03:53:46 10° NW 03:56:32 23° N 03:56:59 22° NNE visible
29 Sep -1.9 03:04:59 10° WNW 03:07:46 24° N 03:10:13 12° NE visible
29 Sep -0.9 04:42:07 10° NW 04:43:06 17° NW 04:43:06 17° NW visible
